| time (UTC) | temp F | wind direction | speed MPH | gust MPH | rain 1hr in | rain 24hr in | rain mn in | humidity % | barometer mb |
| 20260906140729 | 70 | 350 | 4.0 | 10.0 | 0.00 | 0.00 | 0.00 | 75 | 1019.1 |
| 20260906140032 | 69 | 221 | 4.0 | 11.0 | 0.00 | 0.00 | 0.00 | 75 | 1020.2 |
| 20260906135703 | 69 | 322 | 4.0 | 8.0 | 0.00 | 0.00 | 0.00 | 75 | 1019.0 |
| 20260906135136 | 69 | 21 | 4.0 | 8.0 | 0.00 | 0.00 | 0.00 | 75 | 1019.1 |
| 20260906134613 | 69 | 220 | 4.0 | 8.0 | 0.00 | 0.00 | 0.00 | 75 | 1019.2 |
| 20260906134527 | 68 | 333 | 3.0 | 9.0 | 0.00 | 0.00 | 0.00 | 74 | 1020.4 |
| 20260906133031 | 68 | 342 | 3.0 | 10.0 | 0.00 | 0.00 | 0.00 | 75 | 1020.3 |
| 20260906132530 | 68 | 20 | 4.0 | 8.0 | 0.00 | 0.00 | 0.00 | 75 | 1019.1 |
| 20260906132032 | 68 | 11 | 3.0 | 7.0 | 0.00 | 0.00 | 0.00 | 75 | 1019.1 |
| 20260906131514 | 67 | 325 | 2.0 | 8.0 | 0.00 | 0.00 | 0.00 | 74 | 1020.1 |
| 20260906131506 | 68 | 354 | 2.0 | 7.0 | 0.00 | 0.00 | 0.00 | 75 | 1018.9 |
| 20260906131008 | 68 | 42 | 3.0 | 5.0 | 0.00 | 0.00 | 0.00 | 75 | 1019.1 |
| 20260906130446 | 68 | 1 | 3.0 | 6.0 | 0.00 | 0.00 | 0.00 | 75 | 1019.1 |
| 20260906130022 | 67 | 342 | 2.0 | 7.0 | 0.00 | 0.00 | 0.00 | 74 | 1020.3 |
| 20260906125942 | 67 | 1 | 3.0 | 6.0 | 0.00 | 0.00 | 0.00 | 75 | 1019.1 |
| 20260906125420 | 67 | 6 | 3.0 | 7.0 | 0.00 | 0.00 | 0.00 | 75 | 1018.9 |
| 20260906124920 | 67 | 11 | 3.0 | 5.0 | 0.00 | 0.00 | 0.00 | 75 | 1018.8 |
| 20260906124504 | 66 | 338 | 3.0 | 5.0 | 0.00 | 0.00 | 0.00 | 74 | 1020.0 |
| 20260906123818 | 67 | 18 | 3.0 | 5.0 | 0.00 | 0.00 | 0.00 | 74 | 1018.7 |
| 20260906123252 | 66 | 21 | 2.0 | 5.0 | 0.00 | 0.00 | 0.00 | 75 | 1018.6 |
| 20260906123016 | 66 | 13 | 2.0 | 4.0 | 0.00 | 0.00 | 0.00 | 74 | 1019.7 |
| 20260906122251 | 66 | 9 | 2.0 | 5.0 | 0.00 | 0.00 | 0.00 | 74 | 1018.4 |
| 20260906121729 | 66 | 347 | 2.0 | 5.0 | 0.00 | 0.00 | 0.00 | 74 | 1018.4 |
| 20260906121511 | 65 | 342 | 2.0 | 5.0 | 0.00 | 0.00 | 0.00 | 74 | 1019.6 |
| 20260906120218 | 66 | 11 | 2.0 | 5.0 | 0.00 | 0.00 | 0.00 | 74 | 1018.4 |
| 20260906120005 | 65 | 26 | 2.0 | 5.0 | 0.00 | 0.00 | 0.00 | 73 | 1019.6 |
| 20260906115710 | 65 | 46 | 3.0 | 6.0 | 0.00 | 0.00 | 0.00 | 74 | 1018.4 |
| 20260906115210 | 65 | 1 | 3.0 | 6.0 | 0.00 | 0.00 | 0.00 | 74 | 1018.3 |
| 20260906114652 | 65 | 342 | 3.0 | 5.0 | 0.00 | 0.00 | 0.00 | 74 | 1018.4 |
| 20260906114512 | 65 | 46 | 2.0 | 5.0 | 0.00 | 0.00 | 0.00 | 73 | 1019.6 |
| 20260906114155 | 65 | 23 | 3.0 | 6.0 | 0.00 | 0.00 | 0.00 | 74 | 1018.3 |
| 20260906113628 | 65 | 344 | 3.0 | 6.0 | 0.00 | 0.00 | 0.00 | 73 | 1018.2 |
| 20260906113124 | 65 | 347 | 3.0 | 6.0 | 0.00 | 0.00 | 0.00 | 73 | 1018.0 |
| 20260906113004 | 65 | 15 | 3.0 | 7.0 | 0.00 | 0.00 | 0.00 | 73 | 1019.1 |
| 20260906112600 | 65 | 6 | 3.0 | 6.0 | 0.00 | 0.00 | 0.00 | 73 | 1017.9 |
| 20260906112038 | 65 | 37 | 3.0 | 7.0 | 0.00 | 0.00 | 0.00 | 73 | 1017.8 |
| 20260906111538 | 65 | 46 | 3.0 | 7.0 | 0.00 | 0.00 | 0.00 | 73 | 1017.6 |
| 20260906111510 | 65 | 51 | 3.0 | 7.0 | 0.00 | 0.00 | 0.00 | 73 | 1018.6 |
| 20260906111020 | 65 | 348 | 4.0 | 7.0 | 0.00 | 0.00 | 0.00 | 73 | 1017.5 |
| 20260906110519 | 65 | 15 | 4.0 | 7.0 | 0.00 | 0.00 | 0.00 | 73 | 1017.4 |
| 20260906110018 | 65 | 8 | 4.0 | 7.0 | 0.00 | 0.00 | 0.00 | 73 | 1017.4 |
| 20260906110010 | 65 | 316 | 3.0 | 8.0 | 0.00 | 0.00 | 0.00 | 72 | 1018.5 |
| 20260906105513 | 65 | 28 | 4.0 | 7.0 | 0.00 | 0.00 | 0.00 | 73 | 1017.3 |
| 20260906104956 | 65 | 324 | 4.0 | 7.0 | 0.00 | 0.00 | 0.00 | 72 | 1017.3 |
| 20260906104509 | 65 | 9 | 3.0 | 8.0 | 0.00 | 0.00 | 0.00 | 72 | 1018.4 |
| 20260906104455 | 65 | 352 | 4.0 | 7.0 | 0.00 | 0.00 | 0.00 | 72 | 1017.4 |
| 20260906103933 | 65 | 343 | 4.0 | 7.0 | 0.00 | 0.00 | 0.00 | 72 | 1017.4 |
| 20260906103432 | 65 | 346 | 4.0 | 7.0 | 0.00 | 0.00 | 0.00 | 72 | 1017.3 |
| 20260906103012 | 65 | 334 | 3.0 | 7.0 | 0.00 | 0.00 | 0.00 | 71 | 1018.4 |
| 20260906102902 | 65 | 351 | 4.0 | 6.0 | 0.00 | 0.00 | 0.00 | 72 | 1017.3 |
| 20260906101823 | 65 | 25 | 4.0 | 7.0 | 0.00 | 0.00 | 0.00 | 71 | 1017.2 |
| 20260906101504 | 65 | 347 | 3.0 | 6.0 | 0.00 | 0.00 | 0.00 | 71 | 1018.2 |
| 20260906101307 | 66 | 327 | 4.0 | 6.0 | 0.00 | 0.00 | 0.00 | 71 | 1017.1 |
| 20260906100808 | 66 | 328 | 4.0 | 6.0 | 0.00 | 0.00 | 0.00 | 71 | 1017.2 |
| 20260906100244 | 66 | 20 | 4.0 | 6.0 | 0.00 | 0.00 | 0.00 | 71 | 1017.0 |
| 20260906100027 | 65 | 15 | 3.0 | 7.0 | 0.00 | 0.00 | 0.00 | 70 | 1018.1 |
| 20260906095742 | 66 | 30 | 4.0 | 6.0 | 0.00 | 0.00 | 0.00 | 71 | 1016.8 |
| 20260906095243 | 66 | 342 | 4.0 | 6.0 | 0.00 | 0.00 | 0.00 | 71 | 1016.8 |
| 20260906094742 | 66 | 351 | 3.0 | 6.0 | 0.00 | 0.00 | 0.00 | 70 | 1017.0 |
| 20260906094519 | 66 | 347 | 4.0 | 7.0 | 0.00 | 0.00 | 0.00 | 70 | 1018.1 |
| 20260906094215 | 66 | 352 | 3.0 | 5.0 | 0.00 | 0.00 | 0.00 | 70 | 1017.0 |
| 20260906093655 | 66 | 0 | 3.0 | 6.0 | 0.00 | 0.00 | 0.00 | 70 | 1017.0 |
| 20260906093125 | 66 | 1 | 3.0 | 6.0 | 0.00 | 0.00 | 0.00 | 70 | 1016.8 |
| 20260906093018 | 66 | 346 | 3.0 | 7.0 | 0.00 | 0.00 | 0.00 | 69 | 1018.0 |
| 20260906092626 | 66 | 346 | 3.0 | 6.0 | 0.00 | 0.00 | 0.00 | 69 | 1016.8 |
| 20260906092105 | 66 | 8 | 4.0 | 7.0 | 0.00 | 0.00 | 0.00 | 69 | 1017.0 |
| 20260906091539 | 66 | 15 | 4.0 | 6.0 | 0.00 | 0.00 | 0.00 | 69 | 1017.0 |
| 20260906091504 | 66 | 336 | 3.0 | 7.0 | 0.00 | 0.00 | 0.00 | 69 | 1018.1 |
| 20260906091042 | 66 | 6 | 4.0 | 6.0 | 0.00 | 0.00 | 0.00 | 69 | 1017.0 |
| 20260906090518 | 66 | 11 | 4.0 | 6.0 | 0.00 | 0.00 | 0.00 | 68 | 1016.8 |
| 20260906090016 | 66 | 23 | 4.0 | 7.0 | 0.00 | 0.00 | 0.00 | 68 | 1016.8 |
| 20260906090008 | 66 | 30 | 3.0 | 8.0 | 0.00 | 0.00 | 0.00 | 67 | 1018.1 |
| 20260906085458 | 66 | 354 | 4.0 | 7.0 | 0.00 | 0.00 | 0.00 | 67 | 1017.0 |
| 20260906084958 | 66 | 13 | 4.0 | 7.0 | 0.00 | 0.00 | 0.00 | 67 | 1017.0 |
| 20260906084511 | 66 | 9 | 4.0 | 9.0 | 0.00 | 0.00 | 0.00 | 66 | 1018.2 |
| 20260906083913 | 67 | 4 | 4.0 | 8.0 | 0.00 | 0.00 | 0.00 | 66 | 1017.0 |
| 20260906083409 | 67 | 354 | 4.0 | 7.0 | 0.00 | 0.00 | 0.00 | 66 | 1017.0 |
| 20260906083023 | 66 | 9 | 3.0 | 7.0 | 0.00 | 0.00 | 0.00 | 65 | 1018.1 |
| 20260906082906 | 67 | 335 | 4.0 | 7.0 | 0.00 | 0.00 | 0.00 | 66 | 1016.8 |
| 20260906082408 | 67 | 341 | 4.0 | 7.0 | 0.00 | 0.00 | 0.00 | 65 | 1017.0 |
| 20260906081527 | 67 | 34 | 3.0 | 8.0 | 0.00 | 0.00 | 0.00 | 64 | 1018.2 |
| 20260906081333 | 67 | 32 | 3.0 | 7.0 | 0.00 | 0.00 | 0.00 | 65 | 1017.0 |
| 20260906080832 | 67 | 340 | 3.0 | 6.0 | 0.00 | 0.00 | 0.00 | 64 | 1017.0 |
| 20260906080328 | 67 | 336 | 3.0 | 5.0 | 0.00 | 0.00 | 0.00 | 64 | 1016.8 |
| 20260906080029 | 67 | 47 | 3.0 | 5.0 | 0.00 | 0.00 | 0.00 | 64 | 1018.0 |
| 20260906075804 | 67 | 44 | 3.0 | 5.0 | 0.00 | 0.00 | 0.00 | 64 | 1017.0 |
| 20260906074734 | 68 | 30 | 3.0 | 5.0 | 0.00 | 0.00 | 0.00 | 64 | 1017.1 |
| 20260906074514 | 67 | 19 | 2.0 | 5.0 | 0.00 | 0.00 | 0.00 | 63 | 1018.1 |
| 20260906074235 | 68 | 349 | 3.0 | 5.0 | 0.00 | 0.00 | 0.00 | 63 | 1017.0 |
| 20260906073709 | 68 | 350 | 3.0 | 6.0 | 0.00 | 0.00 | 0.00 | 63 | 1017.1 |
| 20260906073142 | 68 | 347 | 3.0 | 6.0 | 0.00 | 0.00 | 0.00 | 63 | 1017.1 |
| 20260906073017 | 68 | 330 | 3.0 | 6.0 | 0.00 | 0.00 | 0.00 | 63 | 1018.2 |
| 20260906072636 | 68 | 331 | 3.0 | 5.0 | 0.00 | 0.00 | 0.00 | 63 | 1017.1 |
| 20260906072128 | 68 | 13 | 3.0 | 6.0 | 0.00 | 0.00 | 0.00 | 63 | 1017.2 |
| 20260906071629 | 68 | 1 | 3.0 | 6.0 | 0.00 | 0.00 | 0.00 | 63 | 1017.3 |
| 20260906071515 | 68 | 23 | 3.0 | 7.0 | 0.00 | 0.00 | 0.00 | 62 | 1018.3 |
| 20260906071104 | 68 | 1 | 4.0 | 6.0 | 0.00 | 0.00 | 0.00 | 63 | 1017.3 |
| 20260906070606 | 69 | 354 | 4.0 | 6.0 | 0.00 | 0.00 | 0.00 | 63 | 1017.5 |
| 20260906070031 | 68 | 338 | 3.0 | 5.0 | 0.00 | 0.00 | 0.00 | 62 | 1018.6 |
| 20260906065014 | 69 | 1 | 2.0 | 4.0 | 0.00 | 0.00 | 0.00 | 62 | 1017.5 |
| 20260906064530 | 69 | 329 | 2.0 | 4.0 | 0.00 | 0.00 | 0.00 | 62 | 1018.5 |
| 20260906064513 | 69 | 1 | 2.0 | 4.0 | 0.00 | 0.00 | 0.00 | 62 | 1017.5 |
| 20260906064004 | 69 | 1 | 2.0 | 4.0 | 0.00 | 0.00 | 0.00 | 62 | 1017.5 |
| 20260906063458 | 69 | 344 | 2.0 | 4.0 | 0.00 | 0.00 | 0.00 | 62 | 1017.4 |
| 20260906063015 | 69 | 342 | 2.0 | 4.0 | 0.00 | 0.00 | 0.00 | 61 | 1018.4 |
| 20260906062954 | 70 | 20 | 2.0 | 4.0 | 0.00 | 0.00 | 0.00 | 62 | 1017.3 |
| 20260906062455 | 70 | 9 | 2.0 | 4.0 | 0.00 | 0.00 | 0.00 | 61 | 1017.3 |
| 20260906061924 | 70 | 1 | 2.0 | 4.0 | 0.00 | 0.00 | 0.00 | 61 | 1017.4 |
| 20260906061522 | 70 | 9 | 2.0 | 4.0 | 0.00 | 0.00 | 0.00 | 61 | 1018.5 |
| 20260906061402 | 70 | 1 | 2.0 | 4.0 | 0.00 | 0.00 | 0.00 | 61 | 1017.4 |
| 20260906060856 | 70 | 15 | 2.0 | 4.0 | 0.00 | 0.00 | 0.00 | 61 | 1017.5 |
| 20260906060334 | 70 | 344 | 2.0 | 4.0 | 0.00 | 0.00 | 0.00 | 61 | 1017.4 |
| 20260906060023 | 70 | 344 | 2.0 | 3.0 | 0.00 | 0.00 | 0.00 | 61 | 1018.4 |
| 20260906055834 | 70 | 15 | 2.0 | 4.0 | 0.00 | 0.00 | 0.00 | 61 | 1017.3 |
| 20260906055308 | 71 | 32 | 2.0 | 4.0 | 0.00 | 0.00 | 0.00 | 61 | 1017.2 |
| 20260906054759 | 71 | 13 | 2.0 | 4.0 | 0.00 | 0.00 | 0.00 | 61 | 1017.1 |
| 20260906054516 | 70 | 332 | 1.0 | 5.0 | 0.00 | 0.00 | 0.00 | 61 | 1018.2 |
| 20260906053722 | 71 | 20 | 2.0 | 5.0 | 0.00 | 0.00 | 0.00 | 62 | 1017.1 |
| 20260906053150 | 71 | 347 | 2.0 | 5.0 | 0.00 | 0.00 | 0.00 | 62 | 1017.2 |
| 20260906053032 | 70 | 332 | 1.0 | 5.0 | 0.00 | 0.00 | 0.00 | 61 | 1018.3 |
| 20260906052616 | 71 | 1 | 2.0 | 5.0 | 0.00 | 0.00 | 0.00 | 62 | 1017.1 |
| 20260906052114 | 71 | 314 | 2.0 | 5.0 | 0.00 | 0.00 | 0.00 | 62 | 1017.1 |
| 20260906051606 | 71 | 340 | 2.0 | 5.0 | 0.00 | 0.00 | 0.00 | 62 | 1017.1 |
| 20260906051519 | 70 | 34 | 0.0 | 5.0 | 0.00 | 0.00 | 0.00 | 61 | 1018.2 |
| 20260906051047 | 70 | 8 | 3.0 | 6.0 | 0.00 | 0.00 | 0.00 | 62 | 1017.1 |
| 20260906050513 | 70 | 1 | 3.0 | 6.0 | 0.00 | 0.00 | 0.00 | 62 | 1017.0 |
| 20260906050028 | 70 | 334 | 1.0 | 7.0 | 0.00 | 0.00 | 0.00 | 61 | 1018.0 |
| 20260906050012 | 70 | 8 | 3.0 | 6.0 | 0.00 | 0.00 | 0.00 | 62 | 1016.8 |
| 20260906045513 | 70 | 32 | 3.0 | 7.0 | 0.00 | 0.00 | 0.00 | 62 | 1016.8 |
| 20260906045013 | 70 | 28 | 3.0 | 7.0 | 0.00 | 0.00 | 0.00 | 62 | 1016.8 |
| 20260906044527 | 70 | 344 | 3.0 | 6.0 | 0.00 | 0.00 | 0.00 | 61 | 1017.9 |
| 20260906043912 | 70 | 18 | 3.0 | 6.0 | 0.00 | 0.00 | 0.00 | 62 | 1016.6 |
| 20260906043355 | 70 | 354 | 3.0 | 6.0 | 0.00 | 0.00 | 0.00 | 62 | 1016.6 |
| 20260906043030 | 70 | 31 | 2.0 | 5.0 | 0.00 | 0.00 | 0.00 | 61 | 1017.8 |
| 20260906042857 | 70 | 8 | 2.0 | 6.0 | 0.00 | 0.00 | 0.00 | 62 | 1016.5 |
| 20260906042353 | 70 | 11 | 3.0 | 6.0 | 0.00 | 0.00 | 0.00 | 61 | 1016.4 |
| 20260906041855 | 70 | 354 | 3.0 | 6.0 | 0.00 | 0.00 | 0.00 | 61 | 1016.3 |
| 20260906041521 | 70 | 221 | 2.0 | 7.0 | 0.00 | 0.00 | 0.00 | 61 | 1017.6 |
| 20260906041327 | 70 | 20 | 3.0 | 6.0 | 0.00 | 0.00 | 0.00 | 61 | 1016.2 |
| 20260906040802 | 70 | 28 | 2.0 | 6.0 | 0.00 | 0.00 | 0.00 | 61 | 1016.2 |
| 20260906040234 | 70 | 9 | 3.0 | 6.0 | 0.00 | 0.00 | 0.00 | 61 | 1016.2 |
| 20260906040022 | 70 | 9 | 2.0 | 7.0 | 0.00 | 0.00 | 0.00 | 61 | 1017.6 |
| 20260906035730 | 70 | 1 | 3.0 | 7.0 | 0.00 | 0.00 | 0.00 | 61 | 1016.3 |
| 20260906035224 | 70 | 344 | 3.0 | 7.0 | 0.00 | 0.00 | 0.00 | 61 | 1016.2 |
| 20260906034701 | 70 | 6 | 3.0 | 6.0 | 0.00 | 0.00 | 0.00 | 61 | 1016.2 |
| 20260906034550 | 70 | 309 | 2.0 | 6.0 | 0.00 | 0.00 | 0.00 | 61 | 1017.5 |
| 20260906034154 | 70 | 1 | 2.0 | 6.0 | 0.00 | 0.00 | 0.00 | 61 | 1016.2 |
| 20260906033651 | 70 | 348 | 2.0 | 6.0 | 0.00 | 0.00 | 0.00 | 61 | 1016.1 |
| 20260906033127 | 70 | 16 | 2.0 | 7.0 | 0.00 | 0.00 | 0.00 | 61 | 1016.1 |
| 20260906033033 | 70 | 229 | 1.0 | 8.0 | 0.00 | 0.00 | 0.00 | 60 | 1017.3 |
| 20260906032626 | 71 | 63 | 2.0 | 7.0 | 0.00 | 0.00 | 0.00 | 61 | 1016.0 |
| 20260906032056 | 71 | 340 | 2.0 | 9.0 | 0.00 | 0.00 | 0.00 | 61 | 1015.9 |
| 20260906031552 | 71 | 102 | 3.0 | 9.0 | 0.00 | 0.00 | 0.00 | 61 | 1015.8 |
| 20260906031531 | 70 | 93 | 3.0 | 10.0 | 0.00 | 0.00 | 0.00 | 60 | 1017.1 |
| 20260906031046 | 71 | 138 | 3.0 | 9.0 | 0.00 | 0.00 | 0.00 | 61 | 1015.8 |
| 20260906030518 | 71 | 108 | 2.0 | 8.0 | 0.00 | 0.00 | 0.00 | 61 | 1015.8 |
| 20260906030029 | 71 | 85 | 2.0 | 8.0 | 0.00 | 0.00 | 0.00 | 61 | 1017.1 |
| 20260906030012 | 71 | 6 | 2.0 | 7.0 | 0.00 | 0.00 | 0.00 | 61 | 1015.8 |
| 20260906024503 | 72 | 51 | 2.0 | 8.0 | 0.00 | 0.00 | 0.00 | 60 | 1017.1 |
| 20260906023932 | 72 | 28 | 2.0 | 7.0 | 0.00 | 0.00 | 0.00 | 60 | 1015.7 |
| 20260906023433 | 72 | 319 | 3.0 | 7.0 | 0.00 | 0.00 | 0.00 | 60 | 1015.6 |
| 20260906023003 | 72 | 344 | 2.0 | 9.0 | 0.00 | 0.00 | 0.00 | 60 | 1016.8 |
| 20260906022903 | 72 | 15 | 3.0 | 8.0 | 0.00 | 0.00 | 0.00 | 60 | 1015.5 |
| 20260906022403 | 72 | 15 | 4.0 | 8.0 | 0.00 | 0.00 | 0.00 | 60 | 1015.5 |
| 20260906021829 | 73 | 354 | 3.0 | 6.0 | 0.00 | 0.00 | 0.00 | 61 | 1015.6 |
| 20260906021510 | 72 | 36 | 3.0 | 7.0 | 0.00 | 0.00 | 0.00 | 60 | 1016.8 |
| 20260906020803 | 73 | 13 | 3.0 | 7.0 | 0.00 | 0.00 | 0.00 | 61 | 1015.5 |
| 20260906020303 | 73 | 320 | 3.0 | 6.0 | 0.00 | 0.00 | 0.00 | 61 | 1015.6 |
| 20260906020013 | 73 | 344 | 2.0 | 6.0 | 0.00 | 0.00 | 0.00 | 60 | 1016.8 |
| 20260906015744 | 74 | 314 | 3.0 | 7.0 | 0.00 | 0.00 | 0.00 | 61 | 1015.5 |
| 20260906015248 | 74 | 336 | 3.0 | 6.0 | 0.00 | 0.00 | 0.00 | 61 | 1015.5 |
| 20260906014744 | 74 | 20 | 4.0 | 7.0 | 0.00 | 0.00 | 0.00 | 61 | 1015.3 |
| 20260906014505 | 73 | 51 | 4.0 | 8.0 | 0.00 | 0.00 | 0.00 | 60 | 1016.5 |
| 20260906014243 | 74 | 9 | 4.0 | 9.0 | 0.00 | 0.00 | 0.00 | 61 | 1015.2 |
| 20260906013725 | 74 | 13 | 5.0 | 9.0 | 0.00 | 0.00 | 0.00 | 61 | 1015.2 |
| 20260906013228 | 74 | 42 | 5.0 | 8.0 | 0.00 | 0.00 | 0.00 | 61 | 1015.1 |
| 20260906013004 | 73 | 20 | 4.0 | 9.0 | 0.00 | 0.00 | 0.00 | 60 | 1016.4 |
| 20260906012158 | 74 | 28 | 4.0 | 7.0 | 0.00 | 0.00 | 0.00 | 61 | 1015.0 |
| 20260906011634 | 74 | 345 | 3.0 | 5.0 | 0.00 | 0.00 | 0.00 | 61 | 1014.9 |
| 20260906011504 | 74 | 16 | 3.0 | 5.0 | 0.00 | 0.00 | 0.00 | 60 | 1016.1 |
| 20260906011127 | 74 | 1 | 3.0 | 5.0 | 0.00 | 0.00 | 0.00 | 61 | 1014.9 |
| 20260906010605 | 74 | 1 | 3.0 | 5.0 | 0.00 | 0.00 | 0.00 | 61 | 1014.8 |
| 20260906010056 | 75 | 344 | 3.0 | 5.0 | 0.00 | 0.00 | 0.00 | 61 | 1014.9 |
| 20260906010004 | 74 | 341 | 3.0 | 5.0 | 0.00 | 0.00 | 0.00 | 61 | 1016.2 |
| 20260906005549 | 75 | 8 | 2.0 | 4.0 | 0.00 | 0.00 | 0.00 | 61 | 1015.0 |
| 20260906005020 | 75 | 342 | 2.0 | 4.0 | 0.00 | 0.00 | 0.00 | 61 | 1014.9 |
| 20260906004519 | 76 | 15 | 2.0 | 3.0 | 0.00 | 0.00 | 0.00 | 61 | 1015.0 |
| 20260906004517 | 75 | 9 | 2.0 | 4.0 | 0.00 | 0.00 | 0.00 | 60 | 1016.1 |
| 20260906003951 | 76 | 344 | 2.0 | 4.0 | 0.00 | 0.00 | 0.00 | 61 | 1015.0 |
| 20260906003449 | 76 | 20 | 2.0 | 4.0 | 0.00 | 0.00 | 0.00 | 61 | 1015.0 |
| 20260906003003 | 76 | 9 | 1.0 | 4.0 | 0.00 | 0.00 | 0.00 | 60 | 1016.2 |
| 20260906002920 | 76 | 13 | 2.0 | 4.0 | 0.00 | 0.00 | 0.00 | 61 | 1015.0 |
| 20260906002413 | 76 | 1 | 2.0 | 4.0 | 0.00 | 0.00 | 0.00 | 61 | 1015.0 |
| 20260906001849 | 77 | 349 | 2.0 | 4.0 | 0.00 | 0.00 | 0.00 | 60 | 1015.1 |
| 20260906001504 | 76 | 30 | 2.0 | 5.0 | 0.00 | 0.00 | 0.00 | 60 | 1016.3 |
| 20260906001342 | 77 | 23 | 3.0 | 5.0 | 0.00 | 0.00 | 0.00 | 60 | 1015.0 |
| 20260906000840 | 77 | 28 | 3.0 | 5.0 | 0.00 | 0.00 | 0.00 | 60 | 1015.1 |
| 20260906000334 | 77 | 347 | 3.0 | 4.0 | 0.00 | 0.00 | 0.00 | 60 | 1015.1 |
| 20260906000008 | 77 | 18 | 2.0 | 7.0 | 0.00 | 0.00 | 0.00 | 59 | 1016.3 |
| 20260905235810 | 78 | 1 | 3.0 | 6.0 | 0.00 | 0.00 | 0.00 | 59 | 1015.1 |
| 20260905235306 | 78 | 11 | 3.0 | 6.0 | 0.00 | 0.00 | 0.00 | 59 | 1015.0 |
| 20260905234735 | 78 | 13 | 3.0 | 6.0 | 0.00 | 0.00 | 0.00 | 59 | 1015.0 |
| 20260905234506 | 77 | 325 | 3.0 | 6.0 | 0.00 | 0.00 | 0.00 | 59 | 1016.0 |
| 20260905234234 | 78 | 347 | 4.0 | 7.0 | 0.00 | 0.00 | 0.00 | 59 | 1015.0 |
| 20260905233710 | 78 | 6 | 4.0 | 7.0 | 0.00 | 0.00 | 0.00 | 59 | 1015.0 |
| 20260905233004 | 78 | 336 | 4.0 | 9.0 | 0.00 | 0.00 | 0.00 | 59 | 1016.2 |
| 20260905232133 | 78 | 6 | 4.0 | 7.0 | 0.00 | 0.00 | 0.00 | 59 | 1015.1 |
| 20260905231617 | 78 | 354 | 4.0 | 7.0 | 0.00 | 0.00 | 0.00 | 58 | 1015.0 |
| 20260905231527 | 78 | 346 | 4.0 | 8.0 | 0.00 | 0.00 | 0.00 | 58 | 1016.2 |
| 20260905231117 | 78 | 348 | 4.0 | 6.0 | 0.00 | 0.00 | 0.00 | 58 | 1015.0 |
| 20260905230616 | 79 | 11 | 5.0 | 9.0 | 0.00 | 0.00 | 0.00 | 58 | 1015.1 |
| 20260905230004 | 78 | 342 | 4.0 | 12.0 | 0.00 | 0.00 | 0.00 | 57 | 1016.2 |
| 20260905225546 | 79 | 6 | 6.0 | 11.0 | 0.00 | 0.00 | 0.00 | 57 | 1015.0 |
| 20260905225038 | 79 | 32 | 6.0 | 10.0 | 0.00 | 0.00 | 0.00 | 58 | 1014.8 |
| 20260905224509 | 79 | 16 | 6.0 | 11.0 | 0.00 | 0.00 | 0.00 | 57 | 1015.8 |
| 20260905223942 | 79 | 37 | 6.0 | 12.0 | 0.00 | 0.00 | 0.00 | 57 | 1014.6 |
| 20260905223432 | 80 | 23 | 7.0 | 12.0 | 0.00 | 0.00 | 0.00 | 57 | 1014.6 |
| 20260905223021 | 79 | 340 | 5.0 | 14.0 | 0.00 | 0.00 | 0.00 | 57 | 1015.7 |
| 20260905222422 | 80 | 350 | 7.0 | 13.0 | 0.00 | 0.00 | 0.00 | 57 | 1014.7 |
| 20260905221913 | 80 | 18 | 6.0 | 13.0 | 0.00 | 0.00 | 0.00 | 58 | 1014.8 |
| 20260905221509 | 79 | 349 | 6.0 | 14.0 | 0.00 | 0.00 | 0.00 | 57 | 1015.8 |
| 20260905221408 | 80 | 9 | 7.0 | 15.0 | 0.00 | 0.00 | 0.00 | 58 | 1014.7 |
| 20260905220900 | 80 | 28 | 7.0 | 15.0 | 0.00 | 0.00 | 0.00 | 58 | 1014.6 |
| 20260905220337 | 80 | 15 | 6.0 | 13.0 | 0.00 | 0.00 | 0.00 | 58 | 1014.6 |
| 20260905220007 | 79 | 22 | 6.0 | 14.0 | 0.00 | 0.00 | 0.00 | 58 | 1015.7 |
| 20260905215306 | 80 | 344 | 8.0 | 16.0 | 0.00 | 0.00 | 0.00 | 57 | 1014.7 |
| 20260905214738 | 81 | 18 | 7.0 | 16.0 | 0.00 | 0.00 | 0.00 | 57 | 1014.6 |
| 20260905214510 | 80 | 18 | 10.0 | 17.0 | 0.00 | 0.00 | 0.00 | 56 | 1015.6 |
| 20260905214226 | 81 | 6 | 6.0 | 14.0 | 0.00 | 0.00 | 0.00 | 57 | 1014.6 |
| 20260905213718 | 81 | 25 | 7.0 | 14.0 | 0.00 | 0.00 | 0.00 | 56 | 1014.4 |
| 20260905213013 | 81 | 21 | 7.0 | 16.0 | 0.00 | 0.00 | 0.00 | 56 | 1015.6 |
| 20260905212647 | 82 | 35 | 8.0 | 15.0 | 0.00 | 0.00 | 0.00 | 56 | 1014.5 |
| 20260905212139 | 82 | 334 | 8.0 | 13.0 | 0.00 | 0.00 | 0.00 | 56 | 1014.5 |
| 20260905211639 | 83 | 42 | 7.0 | 13.0 | 0.00 | 0.00 | 0.00 | 55 | 1014.4 |
| 20260905211520 | 83 | 25 | 8.0 | 14.0 | 0.00 | 0.00 | 0.00 | 54 | 1015.5 |
| 20260905211136 | 83 | 25 | 8.0 | 13.0 | 0.00 | 0.00 | 0.00 | 55 | 1014.4 |
| 20260905210640 | 83 | 11 | 8.0 | 13.0 | 0.00 | 0.00 | 0.00 | 55 | 1014.3 |
| 20260905210116 | 84 | 16 | 8.0 | 14.0 | 0.00 | 0.00 | 0.00 | 55 | 1014.3 |
| 20260905210021 | 83 | 23 | 9.0 | 15.0 | 0.00 | 0.00 | 0.00 | 54 | 1015.4 |
| 20260905205615 | 84 | 39 | 9.0 | 14.0 | 0.00 | 0.00 | 0.00 | 54 | 1014.3 |
| 20260905205041 | 84 | 28 | 8.0 | 13.0 | 0.00 | 0.00 | 0.00 | 54 | 1014.3 |
| 20260905204513 | 84 | 344 | 7.0 | 16.0 | 0.00 | 0.00 | 0.00 | 55 | 1015.3 |
| 20260905204007 | 84 | 27 | 8.0 | 15.0 | 0.00 | 0.00 | 0.00 | 55 | 1014.4 |
| 20260905203438 | 84 | 341 | 8.0 | 15.0 | 0.00 | 0.00 | 0.00 | 54 | 1014.3 |
| 20260905203008 | 84 | 27 | 8.0 | 14.0 | 0.00 | 0.00 | 0.00 | 54 | 1015.4 |
| 20260905202911 | 84 | 9 | 7.0 | 13.0 | 0.00 | 0.00 | 0.00 | 55 | 1014.4 |
| 20260905201852 | 85 | 13 | 6.0 | 11.0 | 0.00 | 0.00 | 0.00 | 54 | 1014.3 |
| 20260905201522 | 84 | 15 | 6.0 | 12.0 | 0.00 | 0.00 | 0.00 | 53 | 1015.4 |
| 20260905201331 | 85 | 341 | 7.0 | 11.0 | 0.00 | 0.00 | 0.00 | 53 | 1014.4 |
| 20260905200802 | 85 | 351 | 6.0 | 11.0 | 0.00 | 0.00 | 0.00 | 53 | 1014.3 |
| 20260905200254 | 85 | 1 | 5.0 | 8.0 | 0.00 | 0.00 | 0.00 | 54 | 1014.2 |
| 20260905200023 | 84 | 34 | 5.0 | 9.0 | 0.00 | 0.00 | 0.00 | 54 | 1015.4 |
| 20260905195727 | 85 | 15 | 5.0 | 8.0 | 0.00 | 0.00 | 0.00 | 54 | 1014.4 |
| 20260905194657 | 85 | 16 | 6.0 | 12.0 | 0.00 | 0.00 | 0.00 | 53 | 1014.5 |
| 20260905194526 | 85 | 25 | 7.0 | 13.0 | 0.00 | 0.00 | 0.00 | 53 | 1015.5 |
| 20260905194118 | 85 | 9 | 5.0 | 10.0 | 0.00 | 0.00 | 0.00 | 54 | 1014.5 |
| 20260905193618 | 85 | 349 | 5.0 | 11.0 | 0.00 | 0.00 | 0.00 | 54 | 1014.5 |
| 20260905193117 | 85 | 331 | 6.0 | 12.0 | 0.00 | 0.00 | 0.00 | 54 | 1014.5 |
| 20260905193020 | 84 | 20 | 7.0 | 13.0 | 0.00 | 0.00 | 0.00 | 54 | 1015.7 |
| 20260905191535 | 84 | 25 | 6.0 | 12.0 | 0.00 | 0.00 | 0.00 | 54 | 1014.6 |
| 20260905191511 | 84 | 9 | 6.0 | 13.0 | 0.00 | 0.00 | 0.00 | 53 | 1015.6 |
| 20260905191033 | 84 | 34 | 6.0 | 12.0 | 0.00 | 0.00 | 0.00 | 54 | 1014.6 |
| 20260905190519 | 84 | 347 | 7.0 | 12.0 | 0.00 | 0.00 | 0.00 | 55 | 1014.6 |
| 20260905190014 | 84 | 34 | 7.0 | 13.0 | 0.00 | 0.00 | 0.00 | 53 | 1015.7 |
| 20260905185450 | 85 | 53 | 6.0 | 12.0 | 0.00 | 0.00 | 0.00 | 55 | 1014.7 |
| 20260905184953 | 85 | 336 | 6.0 | 12.0 | 0.00 | 0.00 | 0.00 | 54 | 1014.8 |
| 20260905184515 | 84 | 347 | 6.0 | 14.0 | 0.00 | 0.00 | 0.00 | 53 | 1015.9 |
| 20260905184423 | 85 | 338 | 7.0 | 13.0 | 0.00 | 0.00 | 0.00 | 53 | 1014.8 |
| 20260905183854 | 85 | 346 | 7.0 | 13.0 | 0.00 | 0.00 | 0.00 | 54 | 1014.8 |
| 20260905183345 | 85 | 325 | 7.0 | 11.0 | 0.00 | 0.00 | 0.00 | 54 | 1014.8 |
| 20260905183037 | 85 | 27 | 6.0 | 12.0 | 0.00 | 0.00 | 0.00 | 53 | 1015.9 |
| 20260905182843 | 85 | 32 | 7.0 | 11.0 | 0.00 | 0.00 | 0.00 | 54 | 1014.8 |
| 20260905182341 | 85 | 39 | 6.0 | 11.0 | 0.00 | 0.00 | 0.00 | 54 | 1014.9 |
| 20260905181810 | 85 | 11 | 6.0 | 11.0 | 0.00 | 0.00 | 0.00 | 54 | 1014.9 |
| 20260905181531 | 84 | 22 | 6.0 | 12.0 | 0.00 | 0.00 | 0.00 | 53 | 1016.0 |
| 20260905180737 | 84 | 15 | 6.0 | 12.0 | 0.00 | 0.00 | 0.00 | 54 | 1015.0 |
| 20260905180236 | 84 | 44 | 6.0 | 12.0 | 0.00 | 0.00 | 0.00 | 54 | 1014.9 |
| 20260905180012 | 84 | 13 | 6.0 | 12.0 | 0.00 | 0.00 | 0.00 | 54 | 1016.0 |
| 20260905175728 | 84 | 4 | 6.0 | 10.0 | 0.00 | 0.00 | 0.00 | 54 | 1014.9 |
| 20260905175226 | 84 | 21 | 6.0 | 10.0 | 0.00 | 0.00 | 0.00 | 54 | 1015.0 |
| 20260905174705 | 84 | 1 | 6.0 | 11.0 | 0.00 | 0.00 | 0.00 | 55 | 1015.0 |
| 20260905174522 | 84 | 13 | 4.0 | 12.0 | 0.00 | 0.00 | 0.00 | 54 | 1016.1 |
| 20260905174207 | 84 | 1 | 6.0 | 11.0 | 0.00 | 0.00 | 0.00 | 54 | 1015.0 |
| 20260905173654 | 84 | 11 | 6.0 | 10.0 | 0.00 | 0.00 | 0.00 | 54 | 1015.0 |
| 20260905173156 | 84 | 16 | 6.0 | 10.0 | 0.00 | 0.00 | 0.00 | 55 | 1015.0 |
| 20260905173022 | 83 | 11 | 5.0 | 11.0 | 0.00 | 0.00 | 0.00 | 54 | 1016.0 |
| 20260905172146 | 84 | 356 | 6.0 | 9.0 | 0.00 | 0.00 | 0.00 | 55 | 1015.1 |
| 20260905171622 | 84 | 20 | 6.0 | 12.0 | 0.00 | 0.00 | 0.00 | 54 | 1015.0 |
| 20260905171512 | 84 | 39 | 5.0 | 13.0 | 0.00 | 0.00 | 0.00 | 53 | 1016.2 |
| 20260905171117 | 84 | 20 | 6.0 | 10.0 | 0.00 | 0.00 | 0.00 | 54 | 1015.0 |
| 20260905170552 | 84 | 6 | 6.0 | 11.0 | 0.00 | 0.00 | 0.00 | 55 | 1015.0 |
| 20260905170045 | 84 | 18 | 6.0 | 11.0 | 0.00 | 0.00 | 0.00 | 54 | 1014.9 |
| 20260905170032 | 84 | 54 | 7.0 | 11.0 | 0.00 | 0.00 | 0.00 | 53 | 1016.1 |
| 20260905165517 | 84 | 6 | 6.0 | 10.0 | 0.00 | 0.00 | 0.00 | 54 | 1015.0 |
| 20260905165015 | 84 | 15 | 6.0 | 10.0 | 0.00 | 0.00 | 0.00 | 55 | 1015.0 |
| 20260905164521 | 83 | 17 | 6.0 | 11.0 | 0.00 | 0.00 | 0.00 | 55 | 1016.0 |
| 20260905164504 | 84 | 18 | 5.0 | 10.0 | 0.00 | 0.00 | 0.00 | 55 | 1015.0 |
| 20260905164003 | 83 | 1 | 5.0 | 9.0 | 0.00 | 0.00 | 0.00 | 55 | 1014.9 |
| 20260905163433 | 83 | 27 | 6.0 | 10.0 | 0.00 | 0.00 | 0.00 | 55 | 1015.0 |
| 20260905163024 | 83 | 336 | 6.0 | 11.0 | 0.00 | 0.00 | 0.00 | 54 | 1016.4 |
| 20260905162933 | 83 | 6 | 6.0 | 10.0 | 0.00 | 0.00 | 0.00 | 55 | 1015.1 |
| 20260905162404 | 83 | 331 | 6.0 | 12.0 | 0.00 | 0.00 | 0.00 | 55 | 1015.1 |
| 20260905161527 | 82 | 38 | 5.0 | 11.0 | 0.00 | 0.00 | 0.00 | 54 | 1016.3 |
| 20260905161326 | 83 | 25 | 6.0 | 10.0 | 0.00 | 0.00 | 0.00 | 55 | 1015.1 |
| 20260905160318 | 83 | 16 | 5.0 | 10.0 | 0.00 | 0.00 | 0.00 | 55 | 1015.1 |
| 20260905160023 | 82 | 24 | 5.0 | 13.0 | 0.00 | 0.00 | 0.00 | 55 | 1016.4 |
| 20260905155754 | 83 | 339 | 6.0 | 12.0 | 0.00 | 0.00 | 0.00 | 55 | 1015.1 |
| 20260905155253 | 83 | 9 | 6.0 | 12.0 | 0.00 | 0.00 | 0.00 | 55 | 1015.1 |
| 20260905154724 | 83 | 8 | 7.0 | 11.0 | 0.00 | 0.00 | 0.00 | 55 | 1015.0 |
| 20260905154518 | 82 | 11 | 6.0 | 12.0 | 0.00 | 0.00 | 0.00 | 55 | 1016.2 |
| 20260905154218 | 83 | 351 | 7.0 | 10.0 | 0.00 | 0.00 | 0.00 | 55 | 1015.1 |
| 20260905153714 | 83 | 356 | 6.0 | 12.0 | 0.00 | 0.00 | 0.00 | 56 | 1015.0 |
| 20260905153209 | 83 | 44 | 6.0 | 10.0 | 0.00 | 0.00 | 0.00 | 55 | 1014.9 |
| 20260905153026 | 82 | 17 | 5.0 | 13.0 | 0.00 | 0.00 | 0.00 | 55 | 1016.1 |
| 20260905152644 | 83 | 21 | 6.0 | 12.0 | 0.00 | 0.00 | 0.00 | 56 | 1014.8 |
| 20260905152136 | 82 | 25 | 6.0 | 9.0 | 0.00 | 0.00 | 0.00 | 56 | 1014.7 |
| 20260905151614 | 82 | 4 | 6.0 | 10.0 | 0.00 | 0.00 | 0.00 | 56 | 1014.6 |
| 20260905151527 | 82 | 349 | 5.0 | 11.0 | 0.00 | 0.00 | 0.00 | 55 | 1015.6 |
| 20260905151044 | 82 | 356 | 6.0 | 11.0 | 0.00 | 0.00 | 0.00 | 56 | 1014.6 |
| 20260905150543 | 82 | 23 | 6.0 | 11.0 | 0.00 | 0.00 | 0.00 | 56 | 1014.5 |
| 20260905150030 | 81 | 22 | 5.0 | 10.0 | 0.00 | 0.00 | 0.00 | 57 | 1015.5 |
| 20260905150021 | 82 | 351 | 5.0 | 9.0 | 0.00 | 0.00 | 0.00 | 57 | 1014.5 |
| 20260905145520 | 82 | 13 | 5.0 | 10.0 | 0.00 | 0.00 | 0.00 | 57 | 1014.3 |
| 20260905145021 | 81 | 15 | 4.0 | 10.0 | 0.00 | 0.00 | 0.00 | 58 | 1014.4 |
| 20260905144533 | 80 | 342 | 4.0 | 9.0 | 0.00 | 0.00 | 0.00 | 58 | 1015.2 |
| 20260905144523 | 81 | 18 | 4.0 | 8.0 | 0.00 | 0.00 | 0.00 | 59 | 1014.2 |
| 20260905143953 | 80 | 351 | 5.0 | 8.0 | 0.00 | 0.00 | 0.00 | 59 | 1014.2 |
| 20260905143425 | 80 | 1 | 5.0 | 12.0 | 0.00 | 0.00 | 0.00 | 60 | 1014.2 |
| 20260905143034 | 80 | 28 | 6.0 | 13.0 | 0.00 | 0.00 | 0.00 | 60 | 1015.2 |
| 20260905142923 | 80 | 8 | 5.0 | 12.0 | 0.00 | 0.00 | 0.00 | 60 | 1014.2 |
| 20260905142355 | 80 | 1 | 5.0 | 9.0 | 0.00 | 0.00 | 0.00 | 61 | 1014.2 |
| 20260905141853 | 79 | 49 | 5.0 | 9.0 | 0.00 | 0.00 | 0.00 | 63 | 1014.2 |
| 20260905141520 | 79 | 26 | 5.0 | 9.0 | 0.00 | 0.00 | 0.00 | 65 | 1015.2 |